StationID,Date,MaxTemp,MinTemp,Precipitation,Snowfall,SnowDepth
"USC00501900","1973-03-01",32.00,10.04,,0.00,610.00
"USC00501900","1973-03-02",30.02,5.00,,0.00,610.00
"USC00501900","1973-03-03",28.04,5.00,,0.00,610.00
"USC00501900","1973-03-04",26.06,10.04,,51.00,610.00
"USC00501900","1973-03-05",,,,0.00,610.00
"USC00501900","1973-03-06",21.92,12.02,,51.00,610.00
"USC00501900","1973-03-07",26.96,12.02,,51.00,711.00
"USC00501900","1973-03-08",33.98,12.02,,152.00,813.00
"USC00501900","1973-03-09",33.98,17.96,,102.00,864.00
"USC00501900","1973-03-10",33.08,19.94,,127.00,914.00
"USC00501900","1973-03-11",32.00,12.02,,51.00,914.00
"USC00501900","1973-03-12",28.04,21.92,,229.00,1067.00
"USC00501900","1973-03-13",,,,305.00,1118.00
"USC00501900","1973-03-14",32.00,10.04,,51.00,1118.00
"USC00501900","1973-03-15",24.08,10.04,,76.00,1118.00
"USC00501900","1973-03-16",19.94,-5.08,,0.00,1067.00
"USC00501900","1973-03-17",21.02,-5.98,,0.00,1016.00
"USC00501900","1973-03-18",28.04,-4.00,,0.00,1016.00
"USC00501900","1973-03-19",28.94,-7.96,,0.00,1016.00
"USC00501900","1973-03-20",28.04,-4.00,,0.00,1067.00
"USC00501900","1973-03-21",26.96,8.06,,0.00,1067.00
"USC00501900","1973-03-22",30.02,15.08,,0.00,1016.00
"USC00501900","1973-03-23",37.94,15.98,,0.00,1016.00
"USC00501900","1973-03-24",41.00,23.00,,51.00,1016.00
"USC00501900","1973-03-25",39.92,30.02,,51.00,1016.00
"USC00501900","1973-03-26",37.04,30.02,,0.00,1016.00
"USC00501900","1973-03-27",44.96,30.92,,0.00,965.00
"USC00501900","1973-03-28",42.08,32.00,,0.00,965.00
"USC00501900","1973-03-29",44.06,32.00,,0.00,965.00
"USC00501900","1973-03-30",44.96,26.06,,0.00,965.00
"USC00501900","1973-03-31",44.06,24.98,,0.00,965.00
"USC00501900","1973-04-01",48.02,30.02,0.00,0.00,965.00
"USC00501900","1973-04-02",46.94,28.04,0.00,0.00,965.00
"USC00501900","1973-04-03",46.04,24.08,0.00,0.00,965.00
"USC00501900","1973-04-04",46.04,17.96,0.00,0.00,965.00
"USC00501900","1973-04-05",44.06,21.92,0.00,0.00,965.00
"USC00501900","1973-04-06",42.08,28.04,0.00,0.00,914.00
"USC00501900","1973-04-07",39.02,28.04,0.00,0.00,813.00
"USC00501900","1973-04-08",42.08,33.98,0.00,0.00,762.00
"USC00501900","1973-04-09",46.04,32.00,0.00,0.00,686.00
"USC00501900","1973-04-10",46.94,21.92,0.00,0.00,660.00
"USC00501900","1973-04-11",44.96,23.00,0.00,0.00,610.00
"USC00501900","1973-04-12",42.98,32.00,0.00,0.00,584.00
"USC00501900","1973-04-13",44.96,32.00,0.00,0.00,533.00
"USC00501900","1973-04-14",44.96,32.00,0.00,0.00,508.00
"USC00501900","1973-04-15",46.04,26.96,0.00,0.00,483.00
"USC00501900","1973-04-16",48.02,24.98,0.00,0.00,483.00
"USC00501900","1973-04-17",48.02,30.02,0.00,0.00,483.00
"USC00501900","1973-04-18",46.94,28.04,0.00,0.00,457.00
"USC00501900","1973-04-19",44.06,28.04,0.00,0.00,457.00
"USC00501900","1973-04-20",42.08,26.06,0.00,0.00,432.00
"USC00501900","1973-04-21",44.06,30.02,0.00,0.00,406.00
"USC00501900","1973-04-22",46.94,24.98,0.00,0.00,356.00
"USC00501900","1973-04-23",44.96,21.02,0.00,0.00,330.00
"USC00501900","1973-04-24",42.08,26.06,25.00,25.00,330.00
"USC00501900","1973-04-25",37.04,28.04,25.00,25.00,305.00
"USC00501900","1973-04-26",44.06,28.94,0.00,0.00,305.00
"USC00501900","1973-04-27",39.92,17.06,0.00,0.00,305.00
"USC00501900","1973-04-28",39.92,28.04,127.00,51.00,330.00
"USC00501900","1973-04-29",39.92,30.92,0.00,0.00,305.00
"USC00501900","1973-04-30",46.04,35.06,20.00,0.00,254.00
"USC00501900","1973-09-01",57.92,37.94,0.00,0.00,0.00
"USC00501900","1973-09-02",64.04,32.00,0.00,0.00,0.00
"USC00501900","1973-09-03",66.92,32.00,0.00,0.00,0.00
"USC00501900","1973-09-04",64.94,33.98,0.00,0.00,0.00
"USC00501900","1973-09-05",64.04,35.06,0.00,0.00,0.00
"USC00501900","1973-09-06",62.06,41.00,5.00,0.00,0.00
"USC00501900","1973-09-07",57.92,37.94,0.00,0.00,0.00
"USC00501900","1973-09-08",55.94,42.98,33.00,0.00,0.00
"USC00501900","1973-09-09",57.92,30.02,0.00,0.00,0.00
"USC00501900","1973-09-10",60.08,39.92,0.00,0.00,0.00
"USC00501900","1973-09-11",59.00,30.92,0.00,0.00,0.00
"USC00501900","1973-09-12",51.98,33.08,0.00,0.00,0.00
"USC00501900","1973-09-13",50.00,42.08,13.00,0.00,0.00
"USC00501900","1973-09-14",50.00,41.00,56.00,0.00,0.00
"USC00501900","1973-09-15",,,0.00,0.00,0.00
"USC00501900","1973-09-16",62.96,35.06,0.00,0.00,0.00
"USC00501900","1973-09-17",55.04,39.92,0.00,0.00,0.00
"USC00501900","1973-09-18",55.04,39.92,0.00,0.00,0.00
"USC00501900","1973-09-19",60.08,37.94,8.00,0.00,0.00
"USC00501900","1973-09-20",51.98,44.06,15.00,0.00,0.00
"USC00501900","1973-09-21",57.02,35.96,0.00,0.00,0.00
"USC00501900","1973-09-22",55.04,26.96,0.00,0.00,0.00
"USC00501900","1973-09-23",53.96,23.00,0.00,0.00,0.00
"USC00501900","1973-09-24",42.98,21.92,0.00,0.00,0.00
"USC00501900","1973-09-25",48.92,,0.00,0.00,0.00
"USC00501900","1973-09-26",46.94,35.06,33.00,0.00,0.00
"USC00501900","1973-09-27",46.94,32.00,81.00,0.00,0.00
"USC00501900","1973-09-28",42.08,28.04,0.00,0.00,0.00
"USC00501900","1973-09-29",46.94,26.96,0.00,0.00,0.00
"USC00501900","1973-09-30",50.00,28.94,25.00,0.00,0.00
"USC00501900","1973-10-01",37.04,33.08,406.00,0.00,0.00
"USC00501900","1973-10-02",,,0.00,0.00,0.00
"USC00501900","1973-10-03",42.08,30.02,13.00,0.00,0.00
"USC00501900","1973-10-04",42.08,24.98,0.00,0.00,0.00
"USC00501900","1973-10-05",42.08,28.04,25.00,25.00,0.00
"USC00501900","1973-10-06",37.04,33.98,51.00,51.00,51.00
"USC00501900","1973-10-07",37.94,23.00,0.00,0.00,51.00
"USC00501900","1973-10-08",39.02,19.04,0.00,0.00,51.00
"USC00501900","1973-10-09",44.06,19.94,203.00,203.00,254.00
"USC00501900","1973-10-10",35.06,28.04,76.00,51.00,254.00
"USC00501900","1973-10-11",35.06,28.04,0.00,0.00,254.00
"USC00501900","1973-10-12",35.06,26.06,0.00,0.00,203.00
"USC00501900","1973-10-13",33.98,14.00,0.00,0.00,203.00
"USC00501900","1973-10-14",33.98,12.02,0.00,0.00,203.00
"USC00501900","1973-10-15",39.02,15.98,0.00,0.00,203.00
"USC00501900","1973-10-16",39.92,12.02,0.00,0.00,203.00
"USC00501900","1973-10-17",,12.02,381.00,356.00,457.00
"USC00501900","1973-10-18",39.92,28.04,0.00,0.00,457.00
"USC00501900","1973-10-19",44.96,26.96,0.00,0.00,406.00
"USC00501900","1973-10-20",37.94,28.04,0.00,0.00,356.00
"USC00501900","1973-10-21",37.94,12.02,0.00,0.00,356.00
"USC00501900","1973-10-22",37.94,6.08,0.00,0.00,356.00
"USC00501900","1973-10-23",35.06,5.00,0.00,0.00,356.00
"USC00501900","1973-10-24",30.02,1.94,0.00,0.00,305.00
"USC00501900","1973-10-25",26.06,3.92,0.00,0.00,305.00
"USC00501900","1973-10-26",35.06,21.92,0.00,0.00,305.00
"USC00501900","1973-10-27",39.92,15.98,0.00,0.00,254.00
"USC00501900","1973-10-28",35.06,17.06,51.00,51.00,305.00
"USC00501900","1973-10-29",39.92,28.04,76.00,76.00,254.00
"USC00501900","1973-10-30",44.06,19.94,0.00,0.00,254.00
"USC00501900","1973-10-31",39.02,19.94,0.00,0.00,254.00
"USC00501900","1973-11-01",39.92,17.96,0.00,0.00,254.00
"USC00501900","1973-11-02",32.00,8.06,0.00,0.00,254.00
"USC00501900","1973-11-03",32.00,3.92,0.00,0.00,254.00
"USC00501900","1973-11-04",26.06,1.94,0.00,0.00,254.00
"USC00501900","1973-11-05",24.98,-0.94,0.00,0.00,254.00
"USC00501900","1973-11-06",,,0.00,0.00,254.00
"USC00501900","1973-11-07",21.02,-2.92,0.00,0.00,254.00
"USC00501900","1973-11-08",26.96,6.08,,25.00,254.00
"USC00501900","1973-11-09",30.02,3.02,0.00,0.00,254.00
"USC00501900","1973-11-10",23.00,5.00,0.00,0.00,254.00
"USC00501900","1973-11-11",19.94,3.02,,51.00,305.00
"USC00501900","1973-11-12",15.08,-7.96,0.00,0.00,305.00
"USC00501900","1973-11-13",14.00,-7.96,0.00,0.00,305.00
"USC00501900","1973-11-14",15.08,3.02,0.00,0.00,305.00
"USC00501900","1973-11-15",14.00,6.08,0.00,0.00,305.00
"USC00501900","1973-11-16",10.04,-2.02,0.00,0.00,305.00
"USC00501900","1973-11-17",6.98,-7.96,0.00,0.00,305.00
"USC00501900","1973-11-18",12.02,-4.00,,76.00,381.00
"USC00501900","1973-11-19",24.08,12.02,,102.00,457.00
"USC00501900","1973-11-20",24.08,3.92,,13.00,432.00
"USC00501900","1973-11-21",15.08,-5.08,0.00,0.00,432.00
"USC00501900","1973-11-22",15.98,-5.98,,152.00,508.00
"USC00501900","1973-11-23",19.94,8.96,,102.00,559.00
"USC00501900","1973-11-24",24.98,12.02,,51.00,559.00
"USC00501900","1973-11-25",26.06,6.98,0.00,0.00,533.00
"USC00501900","1973-11-26",17.96,-2.02,,13.00,508.00
"USC00501900","1973-11-27",21.02,12.92,0.00,0.00,483.00
"USC00501900","1973-11-28",21.02,8.06,0.00,0.00,457.00
"USC00501900","1973-11-29",30.02,8.06,0.00,0.00,457.00
"USC00501900","1973-11-30",15.98,3.92,0.00,0.00,432.00
"USC00501900","1973-12-01",19.94,8.06,0.00,0.00,432.00
"USC00501900","1973-12-02",19.04,-4.00,0.00,0.00,432.00
"USC00501900","1973-12-03",8.06,-7.96,0.00,0.00,432.00
"USC00501900","1973-12-04",10.94,-9.94,0.00,0.00,432.00
"USC00501900","1973-12-05",28.04,10.04,0.00,0.00,406.00
"USC00501900","1973-12-06",30.02,10.94,0.00,0.00,406.00
"USC00501900","1973-12-07",15.98,-4.00,0.00,0.00,406.00
"USC00501900","1973-12-08",19.94,-0.94,0.00,0.00,406.00
"USC00501900","1973-12-09",33.98,17.96,0.00,0.00,406.00
"USC00501900","1973-12-10",30.92,23.00,0.00,0.00,406.00
"USC00501900","1973-12-11",26.96,15.98,0.00,0.00,406.00
"USC00501900","1973-12-12",21.92,17.06,0.00,0.00,406.00
"USC00501900","1973-12-13",19.94,1.04,0.00,0.00,406.00
"USC00501900","1973-12-14",14.00,-0.04,0.00,0.00,406.00
"USC00501900","1973-12-15",19.94,8.06,0.00,0.00,406.00
"USC00501900","1973-12-16",30.92,3.92,0.00,0.00,406.00
"USC00501900","1973-12-17",19.94,6.98,102.00,102.00,483.00
"USC00501900","1973-12-18",33.08,19.04,64.00,51.00,508.00
"USC00501900","1973-12-19",39.92,28.94,0.00,0.00,483.00
"USC00501900","1973-12-20",41.00,28.94,,102.00,610.00
"USC00501900","1973-12-21",32.00,15.98,64.00,51.00,610.00
"USC00501900","1973-12-22",19.94,-2.92,25.00,25.00,610.00
"USC00501900","1973-12-23",10.94,1.94,0.00,0.00,610.00
"USC00501900","1973-12-24",14.00,8.06,0.00,0.00,584.00
"USC00501900","1973-12-25",24.08,14.00,76.00,76.00,610.00
"USC00501900","1973-12-26",32.00,23.00,64.00,51.00,635.00
"USC00501900","1973-12-27",35.96,26.96,0.00,0.00,610.00
"USC00501900","1973-12-28",35.06,15.98,0.00,0.00,610.00
"USC00501900","1973-12-29",30.02,15.08,0.00,0.00,584.00
"USC00501900","1973-12-30",24.98,12.02,25.00,25.00,584.00
"USC00501900","1973-12-31",24.98,12.92,0.00,0.00,559.00
"USC00501900","1974-01-01",26.96,15.08,0.00,0.00,559.00
"USC00501900","1974-01-02",26.06,3.92,0.00,0.00,559.00
"USC00501900","1974-01-03",21.02,5.00,0.00,0.00,559.00
"USC00501900","1974-01-04",24.98,1.94,0.00,0.00,559.00
"USC00501900","1974-01-05",10.04,-4.00,0.00,0.00,559.00
"USC00501900","1974-01-06",14.00,-0.04,0.00,0.00,559.00
"USC00501900","1974-01-07",24.08,1.04,0.00,0.00,559.00
"USC00501900","1974-01-08",14.00,3.02,0.00,0.00,559.00
"USC00501900","1974-01-09",19.94,1.94,0.00,0.00,559.00
"USC00501900","1974-01-10",28.04,15.98,0.00,0.00,559.00
"USC00501900","1974-01-11",21.92,-2.92,0.00,0.00,559.00
"USC00501900","1974-01-12",19.94,-0.04,0.00,0.00,559.00
"USC00501900","1974-01-13",12.02,-0.04,0.00,0.00,559.00
"USC00501900","1974-01-14",8.96,-5.98,0.00,0.00,533.00
"USC00501900","1974-01-15",15.98,-11.92,0.00,0.00,533.00
"USC00501900","1974-01-16",6.08,-0.94,0.00,0.00,508.00
"USC00501900","1974-01-17",8.96,-2.02,0.00,0.00,533.00
"USC00501900","1974-01-18",8.06,-2.92,0.00,0.00,508.00
"USC00501900","1974-01-19",5.00,-14.98,0.00,0.00,508.00
"USC00501900","1974-01-20",1.04,-16.06,0.00,0.00,508.00
"USC00501900","1974-01-21",-2.02,-16.96,0.00,0.00,508.00
"USC00501900","1974-01-22",10.04,-5.08,0.00,0.00,508.00
"USC00501900","1974-01-23",15.98,5.00,25.00,25.00,559.00
"USC00501900","1974-01-24",19.94,-0.04,0.00,0.00,508.00
"USC00501900","1974-01-25",10.04,-5.98,0.00,0.00,508.00
"USC00501900","1974-01-26",17.96,-9.94,0.00,0.00,508.00
"USC00501900","1974-01-27",8.96,-7.06,0.00,0.00,508.00
"USC00501900","1974-01-28",15.08,-4.00,0.00,0.00,508.00
"USC00501900","1974-01-29",12.92,-5.98,0.00,0.00,508.00
"USC00501900","1974-01-30",14.00,-5.08,0.00,0.00,508.00
"USC00501900","1974-01-31",12.02,-7.06,0.00,0.00,508.00
"USC00501900","1974-02-01",5.00,-7.96,0.00,0.00,508.00
"USC00501900","1974-02-02",12.92,-0.04,0.00,0.00,508.00
"USC00501900","1974-02-03",15.98,1.94,0.00,0.00,508.00
"USC00501900","1974-02-04",24.08,3.02,76.00,76.00,559.00
"USC00501900","1974-02-05",19.94,15.08,152.00,152.00,711.00
"USC00501900","1974-02-06",26.96,19.94,25.00,25.00,686.00
"USC00501900","1974-02-07",28.94,21.92,36.00,38.00,711.00
"USC00501900","1974-02-08",33.98,26.06,0.00,0.00,686.00
"USC00501900","1974-02-09",35.96,24.98,25.00,25.00,660.00
"USC00501900","1974-02-10",35.06,19.94,0.00,0.00,635.00
"USC00501900","1974-02-11",24.98,15.08,102.00,76.00,711.00
"USC00501900","1974-02-12",15.98,-2.92,0.00,0.00,686.00
"USC00501900","1974-02-13",8.96,-2.02,0.00,0.00,660.00
"USC00501900","1974-02-14",14.00,-2.92,0.00,0.00,660.00
"USC00501900","1974-02-15",12.02,-2.92,0.00,0.00,660.00
"USC00501900","1974-02-16",17.06,-16.06,41.00,51.00,686.00
"USC00501900","1974-02-17",5.00,-14.08,25.00,25.00,711.00
"USC00501900","1974-02-18",19.94,-0.04,0.00,0.00,711.00
"USC00501900","1974-02-19",8.96,-11.92,0.00,0.00,686.00
"USC00501900","1974-02-20",5.00,-11.02,0.00,0.00,686.00
"USC00501900","1974-02-21",15.08,-0.04,0.00,0.00,660.00
"USC00501900","1974-02-22",8.96,1.94,0.00,0.00,660.00
"USC00501900","1974-02-23",14.00,1.04,0.00,0.00,660.00
"USC00501900","1974-02-24",19.94,3.92,0.00,0.00,660.00
"USC00501900","1974-02-25",24.08,6.08,0.00,0.00,660.00
"USC00501900","1974-02-26",32.00,14.00,0.00,0.00,660.00
"USC00501900","1974-02-27",26.96,17.06,81.00,89.00,711.00
"USC00501900","1974-02-28",24.08,8.06,71.00,76.00,737.00
"USC00501900","1974-03-01",21.92,-5.98,0.00,0.00,762.00
"USC00501900","1974-03-02",19.94,-9.04,0.00,0.00,762.00
"USC00501900","1974-03-03",15.08,3.92,483.00,508.00,1168.00
"USC00501900","1974-03-04",19.94,-7.06,102.00,89.00,1194.00
"USC00501900","1974-03-05",14.00,-22.00,0.00,0.00,991.00
"USC00501900","1974-03-06",10.94,-23.08,0.00,0.00,940.00
"USC00501900","1974-03-07",12.92,-14.08,0.00,0.00,889.00
"USC00501900","1974-03-08",12.02,1.04,0.00,0.00,864.00
"USC00501900","1974-03-09",19.94,1.04,0.00,0.00,813.00
"USC00501900","1974-03-10",24.08,1.04,0.00,0.00,813.00
"USC00501900","1974-03-11",26.06,3.02,0.00,0.00,787.00
"USC00501900","1974-03-12",28.94,-7.96,0.00,0.00,787.00
"USC00501900","1974-03-13",30.02,-9.94,0.00,0.00,762.00
"USC00501900","1974-03-14",24.08,3.92,0.00,0.00,762.00
"USC00501900","1974-03-15",32.00,12.02,0.00,0.00,762.00
"USC00501900","1974-03-16",33.08,1.04,0.00,0.00,762.00
"USC00501900","1974-03-17",32.00,6.08,51.00,51.00,813.00
"USC00501900","1974-03-18",28.94,17.96,51.00,51.00,838.00
"USC00501900","1974-03-19",33.98,24.98,25.00,25.00,838.00
"USC00501900","1974-03-20",35.06,26.06,33.00,25.00,813.00
"USC00501900","1974-03-21",37.94,30.02,178.00,76.00,813.00
"USC00501900","1974-03-22",39.92,30.02,0.00,0.00,787.00
"USC00501900","1974-03-23",48.02,30.02,0.00,0.00,762.00
"USC00501900","1974-03-24",46.94,28.94,0.00,0.00,737.00
"USC00501900","1974-03-25",50.00,26.96,0.00,0.00,711.00
"USC00501900","1974-03-26",50.00,24.08,0.00,0.00,711.00
"USC00501900","1974-03-27",50.00,21.02,0.00,0.00,711.00
"USC00501900","1974-03-28",44.96,21.92,0.00,0.00,711.00
"USC00501900","1974-03-29",39.92,23.00,0.00,0.00,711.00
"USC00501900","1974-03-30",37.04,24.98,0.00,0.00,711.00
"USC00501900","1974-03-31",39.92,21.02,0.00,0.00,711.00
"USC00501900","1974-04-01",41.00,19.94,0.00,0.00,711.00
"USC00501900","1974-04-02",37.94,12.02,0.00,0.00,711.00
"USC00501900","1974-04-03",37.94,12.02,0.00,0.00,686.00
"USC00501900","1974-04-04",42.08,15.08,0.00,0.00,686.00
"USC00501900","1974-04-05",42.08,15.98,0.00,0.00,686.00
"USC00501900","1974-04-06",46.04,15.08,0.00,0.00,686.00
"USC00501900","1974-04-07",39.92,19.04,0.00,0.00,686.00
"USC00501900","1974-04-08",44.06,28.04,0.00,0.00,686.00
"USC00501900","1974-04-09",39.02,28.04,0.00,0.00,660.00
"USC00501900","1974-04-10",42.98,28.94,0.00,0.00,660.00
"USC00501900","1974-04-11",46.94,28.04,0.00,0.00,660.00
"USC00501900","1974-04-12",42.08,28.04,25.00,0.00,610.00
"USC00501900","1974-04-13",42.98,28.04,0.00,0.00,584.00
"USC00501900","1974-04-14",46.94,30.92,0.00,0.00,559.00
"USC00501900","1974-04-15",44.96,28.04,0.00,0.00,533.00
"USC00501900","1974-04-16",44.96,28.04,0.00,0.00,508.00
"USC00501900","1974-04-17",50.00,28.94,0.00,0.00,508.00
"USC00501900","1974-04-18",44.96,26.96,0.00,0.00,483.00
"USC00501900","1974-04-19",46.94,24.98,0.00,0.00,457.00
"USC00501900","1974-04-20",48.02,26.06,0.00,0.00,432.00
"USC00501900","1974-04-21",48.02,24.08,0.00,0.00,406.00
"USC00501900","1974-04-22",48.92,24.98,0.00,0.00,381.00
"USC00501900","1974-04-23",42.08,26.06,259.00,203.00,559.00
"USC00501900","1974-04-24",37.04,33.08,203.00,152.00,635.00
"USC00501900","1974-04-25",44.96,30.92,229.00,51.00,508.00
"USC00501900","1974-04-26",48.02,28.94,0.00,0.00,457.00
"USC00501900","1974-04-27",51.08,28.94,0.00,0.00,432.00
"USC00501900","1974-04-28",51.98,32.00,0.00,0.00,406.00
"USC00501900","1974-04-29",53.06,32.00,0.00,0.00,381.00
"USC00501900","1974-04-30",55.04,37.04,0.00,0.00,330.00
"USC00501900","1974-05-01",55.94,30.02,0.00,0.00,305.00
"USC00501900","1974-05-02",53.96,30.92,0.00,0.00,254.00
"USC00501900","1974-05-03",53.06,28.04,0.00,0.00,152.00
"USC00501900","1974-05-04",53.06,32.00,0.00,0.00,102.00
"USC00501900","1974-05-05",53.96,32.00,0.00,0.00,0.00
"USC00501900","1974-05-06",55.04,28.04,0.00,0.00,0.00
"USC00501900","1974-05-07",57.02,26.96,0.00,0.00,0.00
"USC00501900","1974-05-08",60.08,32.00,10.00,0.00,0.00
"USC00501900","1974-05-09",57.92,26.06,0.00,0.00,0.00
"USC00501900","1974-05-10",57.92,30.92,23.00,0.00,0.00
"USC00501900","1974-05-11",55.04,26.96,0.00,0.00,0.00
"USC00501900","1974-05-12",57.02,30.92,8.00,0.00,0.00
"USC00501900","1974-05-13",51.98,30.02,0.00,0.00,0.00
"USC00501900","1974-05-14",60.08,33.08,0.00,0.00,0.00
"USC00501900","1974-05-15",60.08,35.96,0.00,0.00,0.00
"USC00501900","1974-05-16",60.98,39.92,114.00,0.00,0.00
"USC00501900","1974-05-17",53.96,33.98,0.00,0.00,0.00
"USC00501900","1974-05-18",48.02,35.06,23.00,0.00,0.00
"USC00501900","1974-05-19",59.00,28.94,0.00,0.00,0.00
"USC00501900","1974-05-20",62.96,33.98,0.00,0.00,0.00
"USC00501900","1974-05-21",60.98,30.02,0.00,0.00,0.00
"USC00501900","1974-05-22",66.02,33.98,0.00,0.00,0.00
"USC00501900","1974-05-23",69.98,35.96,0.00,0.00,0.00
"USC00501900","1974-05-24",73.04,35.06,0.00,0.00,0.00
"USC00501900","1974-05-25",75.02,39.92,0.00,0.00,0.00
"USC00501900","1974-05-26",73.94,39.92,0.00,0.00,0.00
"USC00501900","1974-05-27",71.96,39.92,0.00,0.00,0.00
"USC00501900","1974-05-28",64.94,37.04,0.00,0.00,0.00
"USC00501900","1974-05-29",69.98,39.92,0.00,0.00,0.00
"USC00501900","1974-05-30",78.08,35.96,0.00,0.00,0.00
"USC00501900","1974-05-31",73.94,35.96,0.00,0.00,0.00
"USC00501900","1974-06-01",68.00,37.94,0.00,0.00,0.00
"USC00501900","1974-06-02",68.00,42.08,0.00,0.00,0.00
"USC00501900","1974-06-03",64.94,44.06,0.00,0.00,0.00
"USC00501900","1974-06-04",62.06,37.94,0.00,0.00,0.00
"USC00501900","1974-06-05",48.92,39.92,76.00,0.00,0.00
"USC00501900","1974-06-06",57.92,41.00,114.00,0.00,0.00
"USC00501900","1974-06-07",55.94,42.08,38.00,0.00,0.00
"USC00501900","1974-06-08",64.04,42.98,0.00,0.00,0.00
"USC00501900","1974-06-09",66.02,44.96,0.00,0.00,0.00
"USC00501900","1974-06-10",75.92,44.06,0.00,0.00,0.00
"USC00501900","1974-06-11",77.00,46.04,0.00,0.00,0.00
"USC00501900","1974-06-12",73.94,42.98,0.00,0.00,0.00
"USC00501900","1974-06-13",71.96,44.06,0.00,0.00,0.00
"USC00501900","1974-06-14",62.96,46.94,0.00,0.00,0.00
"USC00501900","1974-06-15",71.96,35.06,0.00,0.00,0.00
"USC00501900","1974-06-16",66.02,42.98,20.00,0.00,0.00
"USC00501900","1974-06-17",66.02,42.98,0.00,0.00,0.00
"USC00501900","1974-06-18",64.04,42.98,0.00,0.00,0.00
"USC00501900","1974-06-19",62.06,44.06,28.00,0.00,0.00
"USC00501900","1974-06-20",53.06,33.98,0.00,0.00,0.00
"USC00501900","1974-06-21",69.98,42.08,0.00,0.00,0.00
"USC00501900","1974-06-22",69.08,44.96,0.00,0.00,0.00
"USC00501900","1974-06-23",75.02,44.96,0.00,0.00,0.00
"USC00501900","1974-06-24",78.08,51.08,0.00,0.00,0.00
"USC00501900","1974-06-25",69.08,48.02,0.00,0.00,0.00
"USC00501900","1974-06-26",73.94,39.92,0.00,0.00,0.00
"USC00501900","1974-06-27",68.00,39.92,0.00,0.00,0.00
"USC00501900","1974-06-28",71.96,42.98,0.00,0.00,0.00
"USC00501900","1974-06-29",71.06,41.00,0.00,0.00,0.00
"USC00501900","1974-06-30",73.04,42.08,0.00,0.00,0.00
"USC00501900","1974-07-01",78.08,51.98,0.00,0.00,0.00
"USC00501900","1974-07-02",78.08,42.98,0.00,0.00,0.00
"USC00501900","1974-07-03",77.00,39.92,0.00,0.00,0.00
"USC00501900","1974-07-04",69.98,42.08,5.00,0.00,0.00
"USC00501900","1974-07-05",57.92,50.00,0.00,0.00,0.00
"USC00501900","1974-07-06",53.06,48.02,145.00,0.00,0.00
"USC00501900","1974-07-07",55.04,48.02,43.00,0.00,0.00
"USC00501900","1974-07-08",57.92,48.92,0.00,0.00,0.00
"USC00501900","1974-07-09",59.00,46.04,196.00,0.00,0.00
"USC00501900","1974-07-10",59.00,44.96,58.00,0.00,0.00
"USC00501900","1974-07-11",68.00,44.96,10.00,0.00,0.00
"USC00501900","1974-07-12",57.02,39.92,0.00,0.00,0.00
"USC00501900","1974-07-13",69.98,44.96,13.00,0.00,0.00
"USC00501900","1974-07-14",57.92,42.98,10.00,0.00,0.00
"USC00501900","1974-07-15",69.08,48.92,18.00,0.00,0.00
"USC00501900","1974-07-16",62.96,44.96,0.00,0.00,0.00
"USC00501900","1974-07-17",68.00,42.98,0.00,0.00,0.00
"USC00501900","1974-07-18",75.92,48.92,0.00,0.00,0.00
"USC00501900","1974-07-19",73.04,53.06,0.00,0.00,0.00
"USC00501900","1974-07-20",60.08,51.08,135.00,0.00,0.00
"USC00501900","1974-07-21",55.94,46.04,53.00,0.00,0.00
"USC00501900","1974-07-22",62.06,44.96,0.00,0.00,0.00
"USC00501900","1974-07-23",66.92,50.00,0.00,0.00,0.00
"USC00501900","1974-07-24",66.92,48.02,0.00,0.00,0.00
"USC00501900","1974-07-25",64.94,42.98,0.00,0.00,0.00
"USC00501900","1974-07-26",62.96,50.00,0.00,0.00,0.00
"USC00501900","1974-07-27",71.96,42.98,0.00,0.00,0.00
"USC00501900","1974-07-28",77.00,44.06,0.00,0.00,0.00
"USC00501900","1974-07-29",73.94,51.08,0.00,0.00,0.00
"USC00501900","1974-07-30",66.92,46.04,0.00,0.00,0.00
"USC00501900","1974-07-31",73.04,48.92,64.00,0.00,0.00
"USC00501900","1974-08-01",62.96,53.96,0.00,0.00,0.00
"USC00501900","1974-08-02",73.94,44.96,0.00,0.00,0.00
"USC00501900","1974-08-03",64.04,41.00,5.00,0.00,0.00
"USC00501900","1974-08-04",64.94,42.08,0.00,0.00,0.00
"USC00501900","1974-08-05",75.02,42.98,5.00,0.00,0.00
"USC00501900","1974-08-06",68.00,44.06,3.00,0.00,0.00
"USC00501900","1974-08-07",64.94,44.06,114.00,0.00,0.00
"USC00501900","1974-08-08",64.04,42.98,114.00,0.00,0.00
"USC00501900","1974-08-09",62.06,44.96,89.00,0.00,0.00
"USC00501900","1974-08-10",64.94,44.96,0.00,0.00,0.00
"USC00501900","1974-08-11",64.94,46.04,25.00,0.00,0.00
"USC00501900","1974-08-12",68.00,44.06,0.00,0.00,0.00
"USC00501900","1974-08-13",71.96,42.08,0.00,0.00,0.00
"USC00501900","1974-08-14",73.94,42.98,0.00,0.00,0.00
"USC00501900","1974-08-15",73.94,44.06,0.00,0.00,0.00
"USC00501900","1974-08-16",71.96,46.94,25.00,0.00,0.00
"USC00501900","1974-08-17",71.06,50.00,0.00,0.00,0.00
"USC00501900","1974-08-18",75.92,46.04,0.00,0.00,0.00
"USC00501900","1974-08-19",68.00,44.96,0.00,0.00,0.00
"USC00501900","1974-08-20",71.96,35.96,0.00,0.00,0.00
"USC00501900","1974-08-21",71.96,35.96,0.00,0.00,0.00
"USC00501900","1974-08-22",44.06,37.04,0.00,0.00,0.00
"USC00501900","1974-08-23",60.08,26.96,0.00,0.00,0.00
"USC00501900","1974-08-24",62.06,35.06,0.00,0.00,0.00
"USC00501900","1974-08-25",53.06,39.92,5.00,0.00,0.00
"USC00501900","1974-08-26",55.94,41.00,30.00,0.00,0.00
"USC00501900","1974-08-27",53.06,46.04,170.00,0.00,0.00
"USC00501900","1974-08-28",53.06,46.94,452.00,0.00,0.00
"USC00501900","1974-08-29",66.02,44.06,0.00,0.00,0.00
"USC00501900","1974-08-30",68.00,48.02,0.00,0.00,0.00
"USC00501900","1974-08-31",71.06,48.92,0.00,0.00,0.00